June 26, 2022

Time Code Weather Temp. Visibility Ceiling Wind METAR/SPECI
12:00 pm
L
57 °F 6¼ mi+ 200 ft 330° 330° 7 kt METAR LFSL 261000Z AUTO 33007KT 300V010 9999 OVC002/// //////TCU 14/14 Q1014 TEMPO 3000 -RA BKN002 BKN018 FEW050CB
11:30 am
L
57 °F 6¼ mi+ 300 ft 330° 330° 7 kt METAR LFSL 260930Z AUTO 33007KT 9999 OVC003/// //////TCU 14/14 Q1014 TEMPO 3000 -RA BKN002 BKN018 FEW050CB
11:00 am
L
57 °F 6¼ mi+ 300 ft 350° 350° 7 kt METAR LFSL 260900Z AUTO 35007KT 310V020 9999 -RA BKN003/// BKN007/// OVC040/// //////TCU 14/13 Q1014 TEMPO 3000 -RA BKN002 BKN018 FEW050CB
10:30 am
L
55 °F 6¼ mi+ 200 ft 310° 310° 8 kt METAR LFSL 260830Z AUTO 31008KT 9999 -RADZ OVC002/// //////TCU 13/13 Q1015 TEMPO 4000 -RA BKN009 FEW050CB
10:00 am
L
55 °F 6¼ mi+ 300 ft 360° 360° 4 kt METAR LFSL 260800Z AUTO 36004KT 300V040 9999 -RA BKN003/// BKN018/// BKN050/// //////TCU 13/13 Q1014 TEMPO 4000 -RA BKN009 FEW050CB
9:30 am
L
55 °F 3⅛ mi 300 ft 330° 330° 6 kt METAR LFSL 260730Z AUTO 33006KT 290V350 5000 RA BR BKN003/// OVC012/// //////CB 13/13 Q1015 TEMPO NSW BKN009 FEW050CB
9:00 am
L
55 °F 2½ mi 300 ft 320° 320° 8 kt METAR LFSL 260700Z AUTO 32008KT 290V350 9999 4100 RA BKN003/// BKN049/// OVC098/// ///CB 13/13 Q1015 TEMPO 4000 -RA BKN009 FEW050CB
8:30 am
V
55 °F 6¼ mi+ 3,200 ft 340° 340° 6 kt METAR LFSL 260630Z AUTO 34006KT 300V020 9999 -RA SCT004/// BKN032/// BKN058/// //////CB 13/13 Q1014 TEMPO 4000 -RA BKN009 FEW050CB
8:00 am
I
55 °F 6¼ mi+ 800 ft 330° 330° 8 kt METAR LFSL 260600Z AUTO 33008KT 9999 -RA BKN008/// OVC060/// ///CB 13/13 Q1014 TEMPO 4000 -RA BKN003
7:30 am
I
55 °F 6¼ mi+ 900 ft 320° 320° 8 kt METAR LFSL 260530Z AUTO 32008KT 9999 FEW004/// OVC009/// ///TCU 13/13 Q1014 TEMPO BKN008
7:00 am
L
55 °F 6¼ mi+ 300 ft 320° 320° 7 kt METAR LFSL 260500Z AUTO 32007KT 9999 -RA BKN003/// OVC008/// ///TCU 13/13 Q1014 TEMPO BKN008
6:30 am
I
55 °F 6¼ mi+ 900 ft 300° 300° 6 kt METAR LFSL 260430Z AUTO 30006KT 9999 SCT003/// BKN009/// BKN027/// ///TCU 13/13 Q1014 TEMPO BKN008
6:00 am
V
55 °F 6¼ mi+ 10,000 ft 340° 340° 7 kt METAR LFSL 260400Z AUTO 34007KT 310V010 9999 -RA FEW003/// SCT062/// OVC100/// //////CB 13/13 Q1014 TEMPO 4000 -RA BKN008
5:30 am
V
57 °F 5 mi 10,000 ft 310° 310° 8 kt METAR LFSL 260330Z AUTO 31008KT 8000 RA FEW008/// OVC100/// //////CB 14/13 Q1015 TEMPO 4000 -RA BKN008
5:00 am
V
57 °F 6¼ mi+ 7,200 ft 320° 320° 8 kt METAR LFSL 260300Z AUTO 32008KT 9999 RA FEW003/// OVC072/// ///CB 14/14 Q1014
4:30 am
L
57 °F 6¼ mi+ 300 ft 310° 310° 7 kt METAR LFSL 260230Z AUTO 31007KT 9999 BKN003/// OVC080/// ///TCU 14/14 Q1014
4:00 am
V
57 °F 6¼ mi+ 8,200 ft 330° 330° 7 kt METAR LFSL 260200Z AUTO 33007KT 9999 -RA FEW022 BKN082 OVC100 14/14 Q1014
3:30 am
V
57 °F 6¼ mi+ 10,000 ft 330° 330° 4 kt METAR LFSL 260130Z AUTO 33004KT 9999 RA FEW005/// OVC100/// ///TCU 14/14 Q1015
3:00 am
V
59 °F 5⅝ mi 4,900 ft 350° 350° 6 kt METAR LFSL 260100Z AUTO 35006KT 300V020 9000 -RA FEW011/// BKN049/// OVC100/// //////CB 15/14 Q1015
2:30 am
V
59 °F 6¼ mi+ 5,000 ft 290° 290° 6 kt METAR LFSL 260030Z AUTO 29006KT 240V310 9999 FEW003/// BKN050/// BKN068/// //////CB 15/14 Q1015
2:00 am
V
59 °F 6¼ mi+ 7,000 ft 310° 310° 7 kt METAR LFSL 260000Z AUTO 31007KT 9999 FEW001/// BKN070/// OVC086/// ///CB 15/14 Q1014
1:30 am
V
59 °F 6¼ mi+ 7,400 ft 310° 310° 3 kt METAR LFSL 252330Z AUTO 31003KT 270V010 9999 FEW004/// BKN074/// OVC084/// ///CB 15/14 Q1015
1:00 am
V
59 °F 6¼ mi+ 7,800 ft Var Var 2 kt METAR LFSL 252300Z AUTO VRB02KT 9999 -RA FEW005/// BKN078/// OVC090/// ///CB 15/14 Q1015
12:30 am
V
59 °F 6¼ mi+ - 340° 340° 3 kt METAR LFSL 252230Z AUTO 34003KT 310V010 9999 //////TCU 15/14 Q1015
12:00 am
V
59 °F 6¼ mi+ - 300° 300° 5 kt METAR LFSL 252200Z AUTO 30005KT 250V330 9999 //////CB 15/14 Q1015

June 25, 2022

Time Code Weather Temp. Visibility Ceiling Wind METAR/SPECI
11:30 pm
V
59 °F 6¼ mi+ - 290° 290° 3 kt METAR LFSL 252130Z AUTO 29003KT 9999 -RA //////CB 15/14 Q1015
11:00 pm
V
61 °F 6¼ mi+ - 320° 320° 6 kt METAR LFSL 252100Z AUTO 32006KT 9999 //////CB 16/14 Q1014
10:30 pm
V
61 °F 6¼ mi+ - 320° 320° 6 kt METAR LFSL 252030Z AUTO 32006KT 9999 //////CB 16/14 Q1014
10:00 pm
V
61 °F 6¼ mi+ - Var Var 2 kt METAR LFSL 252000Z AUTO VRB02KT 9999 TS ///CB 16/15 Q1015 TEMPO 4000 RA BECMG OVC006
9:30 pm
V
61 °F 6¼ mi+ - 320° 320° 6 kt METAR LFSL 251930Z AUTO 32006KT 9999 //////TCU 16/15 Q1014 TEMPO 4000 RA BKN009 BKN040 FEW050CB
9:00 pm
V
63 °F 6¼ mi+ 7,800 ft 320° 320° 7 kt METAR LFSL 251900Z AUTO 32007KT 9999 FEW010 BKN078 OVC130 17/15 Q1014 TEMPO 4000 RA BKN009 BKN040 FEW050CB
8:30 pm
I
63 °F 6¼ mi+ 900 ft 300° 300° 7 kt METAR LFSL 251830Z AUTO 30007KT 270V330 9999 BKN009 BKN016 OVC082 17/15 Q1014 TEMPO 4000 RA BKN012 BKN040 FEW050CB
8:00 pm
M
63 °F 6¼ mi+ 1,000 ft 290° 290° 7 kt METAR LFSL 251800Z AUTO 29007KT 250V310 9999 BKN010/// BKN015/// OVC029/// ///CB 17/16 Q1013 TEMPO 4000 RA
7:30 pm
M
64 °F 6¼ mi+ 2,700 ft 310° 310° 4 kt METAR LFSL 251730Z AUTO 31004KT 250V330 9999 TS SCT018/// BKN027/// BKN046/// //////CB 18/16 Q1013 TEMPO 4000 RA BKN012 BKN040 FEW050CB
7:00 pm
M
64 °F 6¼ mi+ 2,500 ft 330° 330° 8 kt METAR LFSL 251700Z AUTO 33008KT 9999 -RA FEW017/// BKN025/// BKN060/// ///CB 18/15 Q1013 TEMPO 4000 RA BKN012 BKN040 FEW050CB
6:30 pm
M
66 °F 6¼ mi+ 2,000 ft 310° 310° 6 kt METAR LFSL 251630Z AUTO 31006KT 260V340 9999 -RA BKN020/// BKN028/// OVC064/// //////CB 19/15 Q1013 TEMPO 4000 RA BKN012 BKN040 FEW050CB
6:00 pm
M
68 °F 6¼ mi+ 2,300 ft 310° 310° 9 kt METAR LFSL 251600Z AUTO 31009KT 260V330 9999 FEW018/// BKN023/// BKN064/// ///TCU 20/15 Q1013 TEMPO 4000 RA BKN012 BKN040 FEW050CB
5:30 pm
M
68 °F 6¼ mi+ 1,700 ft 300° 300° 9 kt METAR LFSL 251530Z AUTO 30009KT 260V340 9999 BKN017 BKN024 OVC062 20/15 Q1013 TEMPO 4000 RA BKN012 BKN040 FEW050CB
5:00 pm
M
68 °F 6¼ mi+ 1,700 ft 320° 320° 7 kt METAR LFSL 251500Z AUTO 32007KT 9999 BKN017 BKN024 BKN062 20/16 Q1012 TEMPO 4000 RA BKN012 BKN040 FEW050CB
4:30 pm
M
68 °F 6¼ mi+ 1,700 ft 320° 320° 9 kt METAR LFSL 251430Z AUTO 32009KT 250V350 9999 BKN017 20/16 Q1012 BECMG SCT025 FEW040CB BKN080
4:00 pm
V
68 °F 6¼ mi+ - 330° 330° 9 kt METAR LFSL 251400Z AUTO 33009KT 9999 NCD 20/15 Q1012 TEMPO 32020G30KT 4000 TSRA BECMG SCT025 FEW040CB BKN080
3:30 pm
V
66 °F 6¼ mi+ 5,200 ft 340° 340° 9 kt METAR LFSL 251330Z AUTO 34009KT 9999 -RA FEW028/// BKN052/// BKN100/// 19/15 Q1012 TEMPO 32020G30KT 4000 TSRA BECMG SCT025 FEW040CB BKN080
3:00 pm
V
66 °F 6¼ mi+ - 330° 330° 10 kt METAR LFSL 251300Z AUTO 33010KT 9999 NCD 19/15 Q1012 TEMPO 32020G30KT 4000 TSRA BECMG SCT025 FEW040CB BKN080
2:30 pm
V
64 °F 6¼ mi+ 4,500 ft 330° 330° 11 kt METAR LFSL 251230Z AUTO 33011KT 9999 -RA FEW032/// BKN045/// BKN062/// 18/15 Q1012 TEMPO 32020G30KT 4000 TSRA BECMG SCT025 FEW040CB BKN080
2:00 pm
V
66 °F 6¼ mi+ 9,800 ft 310° 310° 10 kt METAR LFSL 251200Z AUTO 31010KT 9999 -RA FEW031/// SCT066/// BKN098/// 19/15 Q1013 TEMPO 32020G30KT 4000 TSRA BECMG SCT025 FEW040CB BKN080
1:30 pm
V
66 °F 6¼ mi+ 9,000 ft 310° 310° 12 kt METAR LFSL 251130Z AUTO 31012KT 9999 FEW036/// SCT054/// BKN090/// 19/15 Q1012 TEMPO 32020G30KT 4000 TSRA BECMG SCT025 FEW040CB BKN080
1:00 pm
V
68 °F 6¼ mi+ - 290° 290° 10 kt METAR LFSL 251100Z AUTO 29010KT 250V310 9999 NCD 20/14 Q1012 TEMPO 32020G30KT 4000 TSRA BECMG SCT025 FEW040CB BKN080
12:30 pm
V
70 °F 6¼ mi+ - 300° 300° 12 kt METAR LFSL 251030Z AUTO 30012KT CAVOK 21/15 Q1011 TEMPO 32020G30KT 4000 TSRA BECMG SCT025 FEW040CB BKN080
12:00 pm
V
73 °F 6¼ mi+ - 290° 290° 9 kt METAR LFSL 251000Z AUTO 29009KT 250V320 CAVOK 23/16 Q1011 TEMPO 32020G30KT 4000 TSRA BECMG SCT025 FEW040CB BKN080
11:30 am
V
73 °F 6¼ mi+ - 280° 280° 5 kt METAR LFSL 250930Z AUTO 28005KT 210V330 CAVOK 23/15 Q1011 TEMPO 32020G30KT 4000 TSRA BECMG SCT025 FEW040CB BKN080
11:00 am
V
72 °F 6¼ mi+ - 130° 130° 7 kt METAR LFSL 250900Z AUTO 13007KT 100V180 CAVOK 22/14 Q1010 BECMG SCT025 FEW040CB BKN080
10:30 am
V
68 °F 6¼ mi+ - 120° 120° 9 kt METAR LFSL 250830Z AUTO 12009KT 100V160 CAVOK 20/14 Q1011 BECMG 27012KT SCT060TCU
10:00 am
V
68 °F 6¼ mi+ - 120° 120° 10 kt METAR LFSL 250800Z AUTO 12010KT CAVOK 20/14 Q1011 NOSIG
9:30 am
V
66 °F 6¼ mi+ - 130° 130° 8 kt METAR LFSL 250730Z AUTO 13008KT 100V180 CAVOK 19/14 Q1011 NOSIG
9:00 am
V
63 °F 6¼ mi+ - 120° 120° 10 kt METAR LFSL 250700Z AUTO 12010KT CAVOK 17/13 Q1011 NOSIG
8:30 am
V
61 °F 6¼ mi+ - 130° 130° 7 kt METAR LFSL 250630Z AUTO 13007KT CAVOK 16/13 Q1012 NOSIG
8:00 am
V
59 °F 6¼ mi+ - 130° 130° 6 kt METAR LFSL 250600Z AUTO 13006KT CAVOK 15/14 Q1012 NOSIG
7:30 am
V
57 °F 6¼ mi+ - 130° 130° 4 kt METAR LFSL 250530Z AUTO 13004KT 100V180 CAVOK 14/13 Q1012 NOSIG
7:00 am
V
57 °F 6¼ mi+ - 120° 120° 3 kt METAR LFSL 250500Z AUTO 12003KT CAVOK 14/14 Q1012 NOSIG
6:30 am
M
55 °F 4⅜ mi - 120° 120° 3 kt METAR LFSL 250430Z AUTO 12003KT 7000 NSC 13/13 Q1012 NOSIG
6:00 am
V
55 °F 5⅝ mi - 120° 120° 3 kt METAR LFSL 250400Z AUTO 12003KT 9000 FEW001 13/12 Q1012 NOSIG
5:30 am
V
54 °F 6¼ mi+ - Var Var 1 kt METAR LFSL 250330Z AUTO VRB01KT CAVOK 12/12 Q1013 NOSIG
5:00 am
V
54 °F 6¼ mi+ - Var 000° 0 kt METAR LFSL 250300Z AUTO 00000KT CAVOK 12/11 Q1013
4:30 am
V
54 °F 6¼ mi+ - Var 000° 0 kt METAR LFSL 250230Z AUTO 00000KT CAVOK 12/11 Q1013
4:00 am
V
54 °F 6¼ mi+ - Var 000° 0 kt METAR LFSL 250200Z AUTO 00000KT CAVOK 12/12 Q1014
3:30 am
V
54 °F 6¼ mi+ - Var 000° 0 kt METAR LFSL 250130Z AUTO 00000KT CAVOK 12/12 Q1014
3:00 am
V
55 °F 6¼ mi+ - Var 000° 0 kt METAR LFSL 250100Z AUTO 00000KT CAVOK 13/12 Q1014
2:30 am
V
55 °F 6¼ mi+ - Var 000° 0 kt METAR LFSL 250030Z AUTO 00000KT CAVOK 13/12 Q1015
2:00 am
V
55 °F 6¼ mi+ - Var Var 1 kt METAR LFSL 250000Z AUTO VRB01KT CAVOK 13/12 Q1015
1:30 am
V
55 °F 6¼ mi+ - 130° 130° 1 kt METAR LFSL 242330Z AUTO 13001KT CAVOK 13/12 Q1015
1:00 am
V
55 °F 6¼ mi+ - Var 000° 0 kt METAR LFSL 242300Z AUTO 00000KT CAVOK 13/13 Q1015
12:30 am
V
57 °F 6¼ mi+ - Var 000° 0 kt METAR LFSL 242230Z AUTO 00000KT CAVOK 14/13 Q1015
12:00 am
V
57 °F 6¼ mi+ - Var Var 2 kt METAR LFSL 242200Z AUTO VRB02KT CAVOK 14/13 Q1015

June 24, 2022

Time Code Weather Temp. Visibility Ceiling Wind METAR/SPECI
11:30 pm
V
59 °F 6¼ mi+ - Var Var 2 kt METAR LFSL 242130Z AUTO VRB02KT CAVOK 15/14 Q1015
11:00 pm
V
59 °F 6¼ mi+ - Var 000° 0 kt METAR LFSL 242100Z AUTO 00000KT CAVOK 15/14 Q1015
10:30 pm
V
61 °F 6¼ mi+ - Var 000° 0 kt METAR LFSL 242030Z AUTO 00000KT CAVOK 16/14 Q1015
10:00 pm
V
63 °F 6¼ mi+ - Var 000° 0 kt METAR LFSL 242000Z AUTO 00000KT CAVOK 17/15 Q1014 NOSIG
9:30 pm
V
66 °F 6¼ mi+ - 200° 200° 2 kt METAR LFSL 241930Z AUTO 20002KT 9999 FEW047 19/15 Q1014 NOSIG
9:00 pm
V
68 °F 6¼ mi+ - Var Var 2 kt METAR LFSL 241900Z AUTO VRB02KT 9999 FEW048 20/14 Q1014 NOSIG
8:30 pm
V
70 °F 6¼ mi+ - Var Var 2 kt METAR LFSL 241830Z AUTO VRB02KT CAVOK 21/14 Q1014 NOSIG
8:00 pm
V
70 °F 6¼ mi+ - 260° 260° 5 kt METAR LFSL 241800Z AUTO 26005KT 190V320 CAVOK 21/14 Q1014 NOSIG
7:30 pm
V
70 °F 6¼ mi+ - 290° 290° 6 kt METAR LFSL 241730Z AUTO 29006KT 220V320 CAVOK 21/14 Q1014 NOSIG
7:00 pm
V
70 °F 6¼ mi+ 7,600 ft 280° 280° 5 kt METAR LFSL 241700Z AUTO 28005KT 200V320 9999 FEW033 BKN076 OVC098 21/14 Q1014 NOSIG
6:30 pm
V
70 °F 6¼ mi+ - 270° 270° 4 kt METAR LFSL 241630Z AUTO 27004KT 190V330 9999 FEW039/// SCT100/// ///CB 21/14 Q1014 BECMG NSC
6:00 pm
V
73 °F 6¼ mi+ 8,000 ft Var Var 4 kt METAR LFSL 241600Z AUTO VRB04KT 9999 FEW035 SCT070 BKN080 23/14 Q1014 TEMPO FEW030CB BKN035
5:30 pm
V
72 °F 6¼ mi+ 6,400 ft 240° 240° 4 kt METAR LFSL 241530Z AUTO 24004KT 150V310 9999 FEW038 BKN064 OVC100 22/14 Q1014 TEMPO FEW030CB BKN035
5:00 pm
V
73 °F 6¼ mi+ 9,600 ft 260° 260° 6 kt METAR LFSL 241500Z AUTO 26006KT 200V310 9999 FEW038/// BKN096/// //////TCU 23/14 Q1014 TEMPO FEW030CB BKN035
4:30 pm
V
70 °F 6¼ mi+ 4,700 ft Var Var 5 kt METAR LFSL 241430Z AUTO VRB05KT 9999 FEW037/// BKN047/// BKN060/// ///TCU 21/15 Q1014 TEMPO BKN020 FEW030CB
4:00 pm
V
72 °F 6¼ mi+ 9,800 ft 250° 250° 7 kt METAR LFSL 241400Z AUTO 25007KT 180V320 9999 FEW033/// SCT041/// BKN098/// ///TCU 22/14 Q1014 TEMPO BKN020 FEW030CB
3:30 pm
V
73 °F 6¼ mi+ - Var Var 6 kt METAR LFSL 241330Z AUTO VRB06KT 9999 SCT034 SCT096 23/14 Q1014 TEMPO BKN020 FEW030CB
3:00 pm
V
73 °F 6¼ mi+ - 250° 250° 6 kt METAR LFSL 241300Z AUTO 25006KT 190V320 9999 FEW031/// //////CB 23/15 Q1014 NOSIG
2:30 pm
V
70 °F 6¼ mi+ 9,400 ft 220° 220° 7 kt METAR LFSL 241230Z AUTO 22007KT 160V310 9999 SCT028/// SCT040/// BKN094/// ///CB 21/15 Q1014 NOSIG
2:00 pm
V
68 °F 6¼ mi+ 8,800 ft 230° 230° 5 kt METAR LFSL 241200Z AUTO 23005KT 160V320 9999 FEW025/// BKN088/// //////CB 20/15 Q1014 NOSIG
1:30 pm
M
68 °F 6¼ mi+ 2,100 ft 220° 220° 5 kt METAR LFSL 241130Z AUTO 22005KT 160V300 9999 BKN021/// BKN034/// BKN045/// //////CB 20/15 Q1014 TEMPO BKN012 FEW030CB
1:00 pm
V
66 °F 6¼ mi+ - Var Var 5 kt METAR LFSL 241100Z AUTO VRB05KT 9999 FEW028/// SCT088/// ///CB 19/16 Q1014 TEMPO BKN012 FEW030CB
Older data

Download our app

Easy access to all aviation weather on your mobile phone and tablet.
With many features not available on the website, like offline support and a personal airport list.

We and third parties follow your internet behavior on our website with cookies. If you continue, we assume you agree with our cookie policy. Learn more